Regional Weather Roundup
Issued by NWS

Home | Current Version | Previous Version | Text Only | Print | Product List | Glossary On
Versions: 1 2 3 4 5 6 7 8 9 10 11 12 13 14 15 16 17 18 19 20 21 22 23 24 25 26 27 28 29 30 31 32 33 34 35 36 37 38 39 40 41 42 43 44 45 46 47 48 49 50
000
ASUS45 KCYS 200410
RWRWY

WYOMING REGIONAL WEATHER ROUNDUP
NATIONAL WEATHER SERVICE CHEYENNE WY
900 PM MST FRI DEC 19 2014

NOTE:  "FAIR" INDICATES FEW OR NO CLOUDS BELOW 12,000 FEET
WITH NO SIGNIFICANT WEATHER AND/OR OBSTRUCTIONS TO VISIBILITY.

WYZ001-200500-
YELLOWSTONE NATIONAL PARK

CITY           SKY/WX    TMP DP  RH WIND       PRES   REMARKS
LK YELLOWSTONE   N/A     26  21  81 CALM      30.03R
W YELLOWSTONE  NOT AVBL

$$
WYZ002>013-054>058-071-098>099-200500-
NORTHERN WYOMING

CITY           SKY/WX    TMP DP  RH WIND       PRES   REMARKS
JACKSON        CLOUDY    30  28  93 S10       30.04R WCI  21
CODY           MOCLDY    41  23  48 W6        29.91R
GREYBULL       FAIR      19  14  81 CALM      29.96S
WORLAND        FAIR       8   4  83 CALM      29.96R
SHERIDAN       FAIR      23  17  78 CALM      29.87R
BUFFALO        FAIR      29  16  58 W5        29.88S WCI  24
GILLETTE       FAIR      31  21  66 S8        29.88F WCI  23
HULETT           N/A    N/A N/A N/A MISG        N/A
NEWCASTLE      FAIR      28  19  69 CALM      29.95S

$$
WYZ014>020-022>026-101>103-200500-
CENTRAL WYOMING

CITY           SKY/WX    TMP DP  RH WIND       PRES   REMARKS
BIG PINEY      CLOUDY    23  18  81 E5        30.07S WCI  17
PINEDALE       CLOUDY    27  25  93 W5        30.08R WCI  21
DUBOIS         NOT AVBL
LANDER         FAIR      14  10  84 VRB3      29.96S
RIVERTON       FAIR      11   7  84 NW3       29.98R
CASPER         FAIR      29  21  72 SW17      29.96F WCI  17
DOUGLAS        FAIR      31  21  66 NW6       29.95S WCI  25

$$
WYZ021-027>030-104>119-200500-
SOUTHERN WYOMING

CITY           SKY/WX    TMP DP  RH WIND       PRES   REMARKS
EVANSTON       CLOUDY    30  21  69 NW5       30.10R WCI  25
KEMMERER       CLOUDY    30  23  74 SW3       30.08S
FORT BRIDGER   MOCLDY    33  24  68 W12       30.11R WCI  24
ROCK SPRINGS   CLOUDY    29  22  75 S7        30.08S WCI  22
DIXON          CLOUDY    18  15  87 NE3       30.18S
RAWLINS        MOCLDY    28  18  66 VRB6G22   30.06R WCI  22
SARATOGA       MOCLDY    25  18  74 SE12G22   30.09F WCI  14
LARAMIE        FAIR      24  13  62 SW14      30.01S WCI  12
CHEYENNE       FAIR      29  14  53 SW10      29.98F WCI  20
TORRINGTON     FAIR     N/A N/A N/A SW5       29.97S
PINE BLUFFS    FAIR      27  19  74 S5        30.01S WCI  21

$$


USA.gov is the U.S. government's official web portal to all federal, state and local government web resources and services.